Observations for Trim Market St
| Time | AQI | Temp °C | Hum % | Pres Pa | CO μg/m³ | H₂S μg/m³ | NO μg/m³ | NO₂ μg/m³ | O₃ μg/m³ | SO₂ μg/m³ | PM1 μg/m³ | PM2.5 μg/m³ | PM10 μg/m³ |
|---|---|---|---|---|---|---|---|---|---|---|---|---|---|
| Tuesday 14 July 2026 | |||||||||||||
| 08:12 | 1 | 25.6 | 52 | 56,030 | 0.09 | 0 | 0 | 0 | 0 | 0 | 4.28 | 6.99 | 9 |
| 08:11 | 1 | 25.5 | 52 | 56,164 | 0.09 | 0 | 0 | 0 | 0 | 0 | 2.85 | 5.44 | 7.53 |
| 08:10 | 1 | 25.4 | 52 | 56,210 | 0.09 | 0 | 0 | 0 | 0 | 0 | 2.14 | 4.92 | 6.06 |
| 08:09 | 1 | 25.3 | 53 | 56,353 | 0.12 | 0 | 0 | 0 | 0 | 0 | 4.28 | 5.91 | 7.53 |
| 08:08 | 1 | 25.2 | 53 | 56,543 | 0.11 | 0 | 0 | 0 | 0 | 0 | 3.56 | 5.38 | 8.25 |
| 08:07 | 1 | 25.1 | 54 | 56,775 | 0.11 | 0 | 0 | 0 | 0 | 0 | 2.85 | 5.36 | 8.25 |
| 08:02 | 1 | 24.6 | 55 | 57,352 | 0.1 | 0 | 0 | 0 | 0 | 0 | 2.14 | 4.28 | 5.37 |
| 08:00 | 1 | 24.4 | 55 | 57,592 | 0.11 | 0 | 0.23 | 0 | 0 | 0 | 3.56 | 6.28 | 9.67 |
| 07:56 | 1 | 24 | 57 | 57,788 | 0.12 | 0 | 0 | 0 | 0 | 0 | 3.56 | 5.19 | 8.23 |
| 07:52 | 1 | 23.6 | 58 | 57,766 | 0.11 | 0 | 0.31 | 0 | 0.88 | 0 | 2.85 | 4.64 | 6.83 |
| 07:34 | 1 | 22.2 | 62 | 57,510 | 0.15 | 0 | 0 | 0 | 0 | 0 | 2.85 | 4.9 | 8.2 |
| 07:33 | 1 | 22.1 | 63 | 57,473 | 0.15 | 0 | 0.72 | 0 | 0 | 0 | 2.85 | 4.88 | 6.86 |
| 07:32 | 1 | 22 | 63 | 57,431 | 0.17 | 0 | 0.1 | 0 | 0 | 0 | 3.56 | 5.86 | 8.2 |
| 07:31 | 1 | 21.9 | 63 | 57,397 | 0.17 | 0 | 0 | 0 | 3.7 | 0 | 2.14 | 3.37 | 4.86 |
| 07:30 | 1 | 21.9 | 64 | 57,375 | 0.16 | 0 | 0 | 0 | 0 | 0 | 1.43 | 3.85 | 7.53 |
| 07:29 | 1 | 21.8 | 64 | 57,346 | 0.16 | 0 | 0.28 | 0 | 2.07 | 0 | 2.14 | 3.84 | 6.2 |
| 07:28 | 1 | 21.7 | 64 | 57,308 | 0.17 | 0 | 0.97 | 0 | 0.69 | 0 | 2.85 | 4.81 | 8.85 |
| 07:27 | 1 | 21.6 | 64 | 57,267 | 0.16 | 0 | 0 | 0 | 3.19 | 0 | 2.14 | 3.81 | 6.21 |
| 07:26 | 1 | 21.5 | 65 | 57,224 | 0.17 | 0 | 0 | 0 | 0 | 0 | 2.85 | 4.78 | 6.87 |
| 07:25 | 1 | 21.4 | 65 | 57,185 | 0.18 | 0 | 0 | 0 | 0 | 0 | 2.14 | 3.79 | 6.87 |